"Sample Date","Sample Time","Sensor Name","Sample Value","Units","Flow Rate","Sample Interval","Sample Volume","Laser Status","Number Channels","Micron Size 0","Counts/Channel 0","Micron Size 1","Counts/Channel 1","Micron Size 2","Counts/Channel 2","Micron Size 3","Counts/Channel 3","Micron Size 4","Counts/Channel 4","Micron Size 5","Counts/Channel 5","Micron Size 6","Counts/Channel 6","Micron Size 7","Counts/Channel 7","Micron Size 8","Counts/Channel 8","Micron Size 9","Counts/Channel 9","Micron Size 10","Counts/Channel 10","Micron Size 11","Counts/Channel 11","Micron Size 12","Counts/Channel 12","Micron Size 13","Counts/Channel 13","Micron Size 14","Counts/Channel 14","Micron Size 15","Counts/Channel 15","Micron Size 16","Counts/Channel 16","Micron Size 17","Counts/Channel 17","Micron Size 18","Counts/Channel 18","Micron Size 19","Counts/Channel 19","Micron Size 20","Counts/Channel 20","Micron Size 21","Counts/Channel 21","Micron Size 22","Counts/Channel 22","Micron Size 23","Counts/Channel 23","Micron Size 24","Counts/Channel 24","Micron Size 25","Counts/Channel 25","Micron Size 26","Counts/Channel 26","Micron Size 27","Counts/Channel 27","Micron Size 28","Counts/Channel 28","Micron Size 29","Counts/Channel 29","Micron Size 30","Counts/Channel 30","Micron Size 31","Counts/Channel 31"
"07/04/06","16:00:01","AMMA06",51909.000,"cc",28285.336,6.00,2828.534,1,6,0.100,28474.000,0.200,20761.000,0.300,1912.000,0.500,466.000,1.000,296.000,5.000,0
"07/04/06","16:00:07","AMMA06",52192.000,"cc",28325.283,6.00,2832.529,1,6,0.100,28932.000,0.200,20563.000,0.300,1944.000,0.500,471.000,1.000,282.000,5.000,0
"07/04/06","16:00:13","AMMA06",51871.000,"cc",28392.959,6.00,2839.296,1,6,0.100,28459.000,0.200,20686.000,0.300,1917.000,0.500,506.000,1.000,301.000,5.000,2.000
"07/04/06","16:00:19","AMMA06",52034.000,"cc",28312.078,6.00,2831.208,1,6,0.100,28732.000,0.200,20655.000,0.300,1882.000,0.500,452.000,1.000,313.000,5.000,0
"07/04/06","16:00:25","AMMA06",51479.000,"cc",28239.848,6.00,2823.985,1,6,0.100,28222.000,0.200,20499.000,0.300,1942.000,0.500,501.000,1.000,314.000,5.000,1.000
"07/04/06","16:00:31","AMMA06",51332.000,"cc",28322.758,6.00,2832.276,1,6,0.100,28317.000,0.200,20308.000,0.300,1946.000,0.500,481.000,1.000,280.000,5.000,0
"07/04/06","16:00:37","AMMA06",51553.000,"cc",28355.801,6.00,2835.580,1,6,0.100,28183.000,0.200,20586.000,0.300,2040.000,0.500,456.000,1.000,288.000,5.000,0
"07/04/06","16:00:43","AMMA06",51775.000,"cc",28323.549,6.00,2832.355,1,6,0.100,28372.000,0.200,20600.000,0.300,1994.000,0.500,501.000,1.000,308.000,5.000,0
"07/04/06","16:00:49","AMMA06",51871.000,"cc",28331.600,6.00,2833.160,1,6,0.100,28600.000,0.200,20654.000,0.300,1913.000,0.500,470.000,1.000,234.000,5.000,0
"07/04/06","16:00:55","AMMA06",51473.000,"cc",28362.096,6.00,2836.210,1,6,0.100,28319.000,0.200,20508.000,0.300,1898.000,0.500,474.000,1.000,274.000,5.000,0
"07/04/06","16:01:01","AMMA06",51410.000,"cc",28322.389,6.00,2832.239,1,6,0.100,28302.000,0.200,20443.000,0.300,1872.000,0.500,489.000,1.000,304.000,5.000,0
"07/04/06","16:01:07","AMMA06",51716.000,"cc",28256.461,6.00,2825.646,1,6,0.100,28628.000,0.200,20406.000,0.300,1954.000,0.500,439.000,1.000,289.000,5.000,0
"07/04/06","16:01:13","AMMA06",51962.000,"cc",28344.238,6.00,2834.424,1,6,0.100,28725.000,0.200,20582.000,0.300,1927.000,0.500,440.000,1.000,287.000,5.000,1.000
"07/04/06","16:01:19","AMMA06",51536.000,"cc",28268.504,6.00,2826.851,1,6,0.100,28751.000,0.200,20117.000,0.300,1938.000,0.500,440.000,1.000,290.000,5.000,0
"07/04/06","16:01:25","AMMA06",51681.000,"cc",28247.816,6.00,2824.782,1,6,0.100,28501.000,0.200,20466.000,0.300,1957.000,0.500,480.000,1.000,276.000,5.000,1.000
"07/04/06","16:01:31","AMMA06",51897.000,"cc",28371.803,6.00,2837.180,1,6,0.100,28768.000,0.200,20370.000,0.300,1949.000,0.500,475.000,1.000,334.000,5.000,1.000
"07/04/06","16:01:37","AMMA06",51810.000,"cc",28343.246,6.00,2834.325,1,6,0.100,28820.000,0.200,20349.000,0.300,1898.000,0.500,472.000,1.000,271.000,5.000,0
"07/04/06","16:01:43","AMMA06",51962.000,"cc",28308.484,6.00,2830.849,1,6,0.100,28710.000,0.200,20620.000,0.300,1844.000,0.500,468.000,1.000,320.000,5.000,0
"07/04/06","16:01:49","AMMA06",51805.000,"cc",28341.209,6.00,2834.121,1,6,0.100,28732.000,0.200,20377.000,0.300,1903.000,0.500,492.000,1.000,301.000,5.000,0
"07/04/06","16:01:55","AMMA06",51512.000,"cc",28302.801,6.00,2830.280,1,6,0.100,28966.000,0.200,19972.000,0.300,1847.000,0.500,466.000,1.000,261.000,5.000,0
"07/04/06","16:02:01","AMMA06",51788.000,"cc",28283.063,6.00,2828.306,1,6,0.100,28892.000,0.200,20320.000,0.300,1797.000,0.500,474.000,1.000,305.000,5.000,0
"07/04/06","16:02:07","AMMA06",51525.000,"cc",28341.385,6.00,2834.139,1,6,0.100,28797.000,0.200,20092.000,0.300,1858.000,0.500,492.000,1.000,286.000,5.000,0
"07/04/06","16:02:13","AMMA06",51741.000,"cc",28293.729,6.00,2829.373,1,6,0.100,28846.000,0.200,20292.000,0.300,1873.000,0.500,441.000,1.000,289.000,5.000,0
"07/04/06","16:02:19","AMMA06",51570.000,"cc",28311.699,6.00,2831.170,1,6,0.100,28815.000,0.200,20075.000,0.300,1904.000,0.500,472.000,1.000,303.000,5.000,1.000
"07/04/06","16:02:25","AMMA06",51838.000,"cc",28340.606,6.00,2834.061,1,6,0.100,29108.000,0.200,20064.000,0.300,1896.000,0.500,469.000,1.000,301.000,5.000,0
"07/04/06","16:02:31","AMMA06",51315.000,"cc",28327.516,6.00,2832.752,1,6,0.100,28836.000,0.200,19923.000,0.300,1776.000,0.500,467.000,1.000,313.000,5.000,0
"07/04/06","16:02:37","AMMA06",51865.000,"cc",28307.359,6.00,2830.736,1,6,0.100,29076.000,0.200,20154.000,0.300,1885.000,0.500,487.000,1.000,263.000,5.000,0
"07/04/06","16:02:43","AMMA06",51362.000,"cc",28280.063,6.00,2828.006,1,6,0.100,28661.000,0.200,20056.000,0.300,1879.000,0.500,454.000,1.000,312.000,5.000,0
"07/04/06","16:02:49","AMMA06",51186.000,"cc",28335.781,6.00,2833.578,1,6,0.100,28589.000,0.200,20003.000,0.300,1863.000,0.500,429.000,1.000,302.000,5.000,0
"07/04/06","16:02:55","AMMA06",51199.000,"cc",28322.459,6.00,2832.246,1,6,0.100,28636.000,0.200,19970.000,0.300,1842.000,0.500,461.000,1.000,290.000,5.000,0
"07/04/06","16:03:01","AMMA06",51168.000,"cc",28353.914,6.00,2835.392,1,6,0.100,28670.000,0.200,19882.000,0.300,1818.000,0.500,482.000,1.000,316.000,5.000,0
"07/04/06","16:03:07","AMMA06",51621.000,"cc",28373.910,6.00,2837.391,1,6,0.100,28750.000,0.200,20204.000,0.300,1885.000,0.500,462.000,1.000,320.000,5.000,0
"07/04/06","16:03:13","AMMA06",51340.000,"cc",28290.143,6.00,2829.014,1,6,0.100,28743.000,0.200,20061.000,0.300,1797.000,0.500,473.000,1.000,266.000,5.000,0
"07/04/06","16:03:19","AMMA06",51222.000,"cc",28295.777,6.00,2829.578,1,6,0.100,28918.000,0.200,19619.000,0.300,1881.000,0.500,484.000,1.000,319.000,5.000,1.000
"07/04/06","16:03:25","AMMA06",51533.000,"cc",28272.656,6.00,2827.266,1,6,0.100,29015.000,0.200,19862.000,0.300,1858.000,0.500,474.000,1.000,321.000,5.000,3.000
"07/04/06","16:03:31","AMMA06",51262.000,"cc",28375.328,6.00,2837.533,1,6,0.100,28701.000,0.200,19923.000,0.300,1902.000,0.500,455.000,1.000,281.000,5.000,0
"07/04/06","16:03:37","AMMA06",51245.000,"cc",28325.397,6.00,2832.540,1,6,0.100,28627.000,0.200,20044.000,0.300,1786.000,0.500,513.000,1.000,275.000,5.000,0
"07/04/06","16:03:43","AMMA06",51753.000,"cc",28279.727,6.00,2827.973,1,6,0.100,28744.000,0.200,20366.000,0.300,1905.000,0.500,454.000,1.000,283.000,5.000,1.000
"07/04/06","16:03:49","AMMA06",51693.000,"cc",28308.824,6.00,2830.883,1,6,0.100,28887.000,0.200,20104.000,0.300,1917.000,0.500,467.000,1.000,318.000,5.000,0
"07/04/06","16:03:55","AMMA06",51243.000,"cc",28291.244,6.00,2829.125,1,6,0.100,28394.000,0.200,20159.000,0.300,1867.000,0.500,516.000,1.000,307.000,5.000,0
"07/04/06","16:04:01","AMMA06",51292.000,"cc",28324.059,6.00,2832.406,1,6,0.100,28610.000,0.200,20072.000,0.300,1895.000,0.500,442.000,1.000,273.000,5.000,0
"07/04/06","16:04:07","AMMA06",51336.000,"cc",28371.459,6.00,2837.146,1,6,0.100,28483.000,0.200,20113.000,0.300,1980.000,0.500,470.000,1.000,289.000,5.000,1.000
"07/04/06","16:04:13","AMMA06",51388.000,"cc",28324.441,6.00,2832.444,1,6,0.100,28714.000,0.200,19981.000,0.300,1903.000,0.500,491.000,1.000,299.000,5.000,0
"07/04/06","16:04:19","AMMA06",51111.000,"cc",28329.051,6.00,2832.905,1,6,0.100,28551.000,0.200,19881.000,0.300,1939.000,0.500,449.000,1.000,291.000,5.000,0
"07/04/06","16:04:25","AMMA06",51158.000,"cc",28293.486,6.00,2829.349,1,6,0.100,28448.000,0.200,20017.000,0.300,1952.000,0.500,442.000,1.000,299.000,5.000,0
"07/04/06","16:04:31","AMMA06",51281.000,"cc",28325.586,6.00,2832.559,1,6,0.100,28244.000,0.200,20356.000,0.300,1933.000,0.500,477.000,1.000,271.000,5.000,0
"07/04/06","16:04:37","AMMA06",51680.000,"cc",28352.266,6.00,2835.227,1,6,0.100,28846.000,0.200,20191.000,0.300,1906.000,0.500,439.000,1.000,298.000,5.000,0
"07/04/06","16:04:43","AMMA06",51383.000,"cc",28267.557,6.00,2826.756,1,6,0.100,28733.000,0.200,19984.000,0.300,1924.000,0.500,459.000,1.000,283.000,5.000,0
"07/04/06","16:04:49","AMMA06",51638.000,"cc",28329.023,6.00,2832.903,1,6,0.100,28601.000,0.200,20317.000,0.300,1876.000,0.500,514.000,1.000,330.000,5.000,0
"07/04/06","16:04:55","AMMA06",51221.000,"cc",28288.719,6.00,2828.872,1,6,0.100,28426.000,0.200,20219.000,0.300,1839.000,0.500,446.000,1.000,291.000,5.000,0
"07/04/06","16:05:01","AMMA06",51590.000,"cc",28334.539,6.00,2833.454,1,6,0.100,28882.000,0.200,20061.000,0.300,1863.000,0.500,464.000,1.000,320.000,5.000,0
"07/04/06","16:05:07","AMMA06",51868.000,"cc",28281.482,6.00,2828.148,1,6,0.100,29036.000,0.200,20196.000,0.300,1890.000,0.500,452.000,1.000,294.000,5.000,0
"07/04/06","16:05:13","AMMA06",51865.000,"cc",28342.334,6.00,2834.234,1,6,0.100,28857.000,0.200,20350.000,0.300,1897.000,0.500,463.000,1.000,298.000,5.000,0
"07/04/06","16:05:19","AMMA06",52307.000,"cc",28336.092,6.00,2833.609,1,6,0.100,29167.000,0.200,20443.000,0.300,1940.000,0.500,444.000,1.000,313.000,5.000,0
"07/04/06","16:05:25","AMMA06",51920.000,"cc",28314.311,6.00,2831.431,1,6,0.100,29273.000,0.200,20114.000,0.300,1812.000,0.500,429.000,1.000,292.000,5.000,0
"07/04/06","16:05:31","AMMA06",51833.000,"cc",28282.035,6.00,2828.204,1,6,0.100,28932.000,0.200,20107.000,0.300,1990.000,0.500,491.000,1.000,313.000,5.000,0
"07/04/06","16:05:37","AMMA06",51316.000,"cc",28333.102,6.00,2833.310,1,6,0.100,28803.000,0.200,19895.000,0.300,1813.000,0.500,459.000,1.000,346.000,5.000,0
"07/04/06","16:05:43","AMMA06",51707.000,"cc",28346.029,6.00,2834.603,1,6,0.100,28951.000,0.200,20171.000,0.300,1854.000,0.500,438.000,1.000,293.000,5.000,0
"07/04/06","16:05:49","AMMA06",51853.000,"cc",28290.781,6.00,2829.078,1,6,0.100,29133.000,0.200,19990.000,0.300,1938.000,0.500,472.000,1.000,319.000,5.000,1.000
"07/04/06","16:05:55","AMMA06",52292.000,"cc",28286.014,6.00,2828.602,1,6,0.100,29334.000,0.200,20286.000,0.300,1914.000,0.500,476.000,1.000,282.000,5.000,0
"07/04/06","16:06:01","AMMA06",52152.000,"cc",28308.084,6.00,2830.809,1,6,0.100,29379.000,0.200,20166.000,0.300,1849.000,0.500,485.000,1.000,273.000,5.000,0
"07/04/06","16:06:07","AMMA06",51685.000,"cc",28382.611,6.00,2838.261,1,6,0.100,28827.000,0.200,20180.000,0.300,1877.000,0.500,502.000,1.000,299.000,5.000,0
"07/04/06","16:06:13","AMMA06",51926.000,"cc",28363.539,6.00,2836.354,1,6,0.100,29096.000,0.200,20202.000,0.300,1900.000,0.500,454.000,1.000,274.000,5.000,0
"07/04/06","16:06:19","AMMA06",51877.000,"cc",28303.076,6.00,2830.308,1,6,0.100,29110.000,0.200,20138.000,0.300,1870.000,0.500,464.000,1.000,295.000,5.000,0
"07/04/06","16:06:25","AMMA06",51674.000,"cc",28312.313,6.00,2831.231,1,6,0.100,29044.000,0.200,19985.000,0.300,1913.000,0.500,450.000,1.000,282.000,5.000,0
"07/04/06","16:06:31","AMMA06",51434.000,"cc",28267.799,6.00,2826.780,1,6,0.100,28696.000,0.200,20138.000,0.300,1870.000,0.500,438.000,1.000,292.000,5.000,0
"07/04/06","16:06:37","AMMA06",51812.000,"cc",28343.959,6.00,2834.396,1,6,0.100,29233.000,0.200,19896.000,0.300,1912.000,0.500,484.000,1.000,287.000,5.000,0
"07/04/06","16:06:43","AMMA06",51894.000,"cc",28295.111,6.00,2829.511,1,6,0.100,29097.000,0.200,20138.000,0.300,1917.000,0.500,473.000,1.000,269.000,5.000,0
"07/04/06","16:06:49","AMMA06",51807.000,"cc",28312.172,6.00,2831.217,1,6,0.100,28979.000,0.200,20168.000,0.300,1892.000,0.500,468.000,1.000,300.000,5.000,0
"07/04/06","16:06:55","AMMA06",51780.000,"cc",28332.272,6.00,2833.227,1,6,0.100,29178.000,0.200,19948.000,0.300,1878.000,0.500,455.000,1.000,321.000,5.000,0
"07/04/06","16:07:01","AMMA06",52099.000,"cc",28302.527,6.00,2830.253,1,6,0.100,29433.000,0.200,20064.000,0.300,1880.000,0.500,450.000,1.000,272.000,5.000,0
"07/04/06","16:07:07","AMMA06",52083.000,"cc",28353.455,6.00,2835.346,1,6,0.100,29283.000,0.200,20152.000,0.300,1865.000,0.500,473.000,1.000,309.000,5.000,1.000
"07/04/06","16:07:13","AMMA06",51633.000,"cc",28336.941,6.00,2833.694,1,6,0.100,28833.000,0.200,20253.000,0.300,1806.000,0.500,457.000,1.000,284.000,5.000,0
"07/04/06","16:07:19","AMMA06",51725.000,"cc",28316.900,6.00,2831.690,1,6,0.100,28952.000,0.200,20134.000,0.300,1884.000,0.500,465.000,1.000,289.000,5.000,1.000
"07/04/06","16:07:25","AMMA06",51450.000,"cc",28322.959,6.00,2832.296,1,6,0.100,29059.000,0.200,19829.000,0.300,1784.000,0.500,475.000,1.000,303.000,5.000,0
"07/04/06","16:07:31","AMMA06",51723.000,"cc",28276.553,6.00,2827.656,1,6,0.100,28946.000,0.200,20128.000,0.300,1921.000,0.500,432.000,1.000,296.000,5.000,0
"07/04/06","16:07:37","AMMA06",52042.000,"cc",28300.994,6.00,2830.100,1,6,0.100,28931.000,0.200,20432.000,0.300,1924.000,0.500,464.000,1.000,291.000,5.000,0
"07/04/06","16:07:43","AMMA06",51572.000,"cc",28387.397,6.00,2838.740,1,6,0.100,28646.000,0.200,20257.000,0.300,1927.000,0.500,455.000,1.000,286.000,5.000,1.000
"07/04/06","16:07:49","AMMA06",52048.000,"cc",28282.936,6.00,2828.294,1,6,0.100,29015.000,0.200,20273.000,0.300,1969.000,0.500,481.000,1.000,310.000,5.000,0
"07/04/06","16:07:55","AMMA06",51841.000,"cc",28255.633,6.00,2825.564,1,6,0.100,28958.000,0.200,20265.000,0.300,1851.000,0.500,473.000,1.000,294.000,5.000,0
"07/04/06","16:08:01","AMMA06",51948.000,"cc",28328.242,6.00,2832.825,1,6,0.100,28871.000,0.200,20393.000,0.300,1866.000,0.500,510.000,1.000,308.000,5.000,0
"07/04/06","16:08:07","AMMA06",52096.000,"cc",28366.481,6.00,2836.648,1,6,0.100,28747.000,0.200,20561.000,0.300,2010.000,0.500,480.000,1.000,298.000,5.000,0
"07/04/06","16:08:13","AMMA06",51688.000,"cc",28296.188,6.00,2829.619,1,6,0.100,28519.000,0.200,20477.000,0.300,1931.000,0.500,460.000,1.000,301.000,5.000,0
"07/04/06","16:08:19","AMMA06",51794.000,"cc",28287.617,6.00,2828.762,1,6,0.100,28696.000,0.200,20346.000,0.300,1948.000,0.500,485.000,1.000,317.000,5.000,2.000
"07/04/06","16:08:25","AMMA06",52129.000,"cc",28328.211,6.00,2832.821,1,6,0.100,28874.000,0.200,20642.000,0.300,1851.000,0.500,458.000,1.000,304.000,5.000,0
"07/04/06","16:08:31","AMMA06",51861.000,"cc",28298.787,6.00,2829.879,1,6,0.100,28669.000,0.200,20510.000,0.300,1918.000,0.500,497.000,1.000,267.000,5.000,0
"07/04/06","16:08:37","AMMA06",51997.000,"cc",28328.008,6.00,2832.801,1,6,0.100,28727.000,0.200,20658.000,0.300,1862.000,0.500,472.000,1.000,278.000,5.000,0
"07/04/06","16:08:43","AMMA06",51959.000,"cc",28340.488,6.00,2834.049,1,6,0.100,28748.000,0.200,20509.000,0.300,1946.000,0.500,445.000,1.000,311.000,5.000,0
"07/04/06","16:08:49","AMMA06",51803.000,"cc",28305.674,6.00,2830.568,1,6,0.100,28676.000,0.200,20488.000,0.300,1936.000,0.500,459.000,1.000,244.000,5.000,0
"07/04/06","16:08:55","AMMA06",51978.000,"cc",28309.344,6.00,2830.935,1,6,0.100,28720.000,0.200,20554.000,0.300,1911.000,0.500,503.000,1.000,290.000,5.000,0
"07/04/06","16:09:01","AMMA06",51699.000,"cc",28347.357,6.00,2834.736,1,6,0.100,28611.000,0.200,20356.000,0.300,1935.000,0.500,468.000,1.000,329.000,5.000,0
"07/04/06","16:09:07","AMMA06",51901.000,"cc",28340.756,6.00,2834.076,1,6,0.100,28610.000,0.200,20609.000,0.300,1903.000,0.500,480.000,1.000,299.000,5.000,0
"07/04/06","16:09:13","AMMA06",51816.000,"cc",28276.502,6.00,2827.650,1,6,0.100,28466.000,0.200,20627.000,0.300,1894.000,0.500,519.000,1.000,310.000,5.000,0
"07/04/06","16:09:19","AMMA06",51743.000,"cc",28343.588,6.00,2834.359,1,6,0.100,28580.000,0.200,20494.000,0.300,1904.000,0.500,455.000,1.000,310.000,5.000,0
"07/04/06","16:09:25","AMMA06",51565.000,"cc",28271.102,6.00,2827.110,1,6,0.100,28469.000,0.200,20404.000,0.300,1922.000,0.500,485.000,1.000,285.000,5.000,0
"07/04/06","16:09:31","AMMA06",51822.000,"cc",28308.602,6.00,2830.860,1,6,0.100,28509.000,0.200,20645.000,0.300,1929.000,0.500,425.000,1.000,314.000,5.000,0
"07/04/06","16:09:37","AMMA06",51800.000,"cc",28328.707,6.00,2832.871,1,6,0.100,28464.000,0.200,20596.000,0.300,1970.000,0.500,446.000,1.000,323.000,5.000,1.000
"07/04/06","16:09:43","AMMA06",51858.000,"cc",28316.953,6.00,2831.696,1,6,0.100,28577.000,0.200,20535.000,0.300,1977.000,0.500,476.000,1.000,293.000,5.000,0
"07/04/06","16:09:49","AMMA06",51923.000,"cc",28322.936,6.00,2832.294,1,6,0.100,28513.000,0.200,20724.000,0.300,1914.000,0.500,474.000,1.000,298.000,5.000,0
"07/04/06","16:09:55","AMMA06",52014.000,"cc",28313.109,6.00,2831.311,1,6,0.100,28643.000,0.200,20610.000,0.300,2006.000,0.500,484.000,1.000,271.000,5.000,0
"07/04/06","16:10:01","AMMA06",51776.000,"cc",28324.322,6.00,2832.432,1,6,0.100,28244.000,0.200,20828.000,0.300,1960.000,0.500,449.000,1.000,295.000,5.000,0
"07/04/06","16:10:07","AMMA06",51985.000,"cc",28336.279,6.00,2833.628,1,6,0.100,28576.000,0.200,20658.000,0.300,1971.000,0.500,499.000,1.000,281.000,5.000,0
"07/04/06","16:10:13","AMMA06",51848.000,"cc",28328.813,6.00,2832.881,1,6,0.100,28482.000,0.200,20741.000,0.300,1877.000,0.500,439.000,1.000,309.000,5.000,0
"07/04/06","16:10:19","AMMA06",52374.000,"cc",28279.482,6.00,2827.949,1,6,0.100,28627.000,0.200,21045.000,0.300,1943.000,0.500,450.000,1.000,309.000,5.000,0
"07/04/06","16:10:25","AMMA06",52315.000,"cc",28317.320,6.00,2831.732,1,6,0.100,28682.000,0.200,20798.000,0.300,2078.000,0.500,462.000,1.000,295.000,5.000,0
"07/04/06","16:10:31","AMMA06",52304.000,"cc",28354.750,6.00,2835.475,1,6,0.100,28781.000,0.200,20732.000,0.300,1992.000,0.500,482.000,1.000,317.000,5.000,0
"07/04/06","16:10:37","AMMA06",52117.000,"cc",28315.924,6.00,2831.593,1,6,0.100,28237.000,0.200,21012.000,0.300,2084.000,0.500,495.000,1.000,289.000,5.000,0
"07/04/06","16:10:43","AMMA06",52422.000,"cc",28353.035,6.00,2835.304,1,6,0.100,28710.000,0.200,20903.000,0.300,2035.000,0.500,473.000,1.000,301.000,5.000,0
"07/04/06","16:10:49","AMMA06",51829.000,"cc",28293.590,6.00,2829.359,1,6,0.100,28412.000,0.200,20660.000,0.300,2012.000,0.500,437.000,1.000,307.000,5.000,1.000
"07/04/06","16:10:55","AMMA06",52046.000,"cc",28282.811,6.00,2828.281,1,6,0.100,28562.000,0.200,20742.000,0.300,1947.000,0.500,474.000,1.000,321.000,5.000,0
"07/04/06","16:11:01","AMMA06",51726.000,"cc",28286.404,6.00,2828.641,1,6,0.100,28602.000,0.200,20427.000,0.300,1924.000,0.500,476.000,1.000,297.000,5.000,0
"07/04/06","16:11:07","AMMA06",51848.000,"cc",28324.158,6.00,2832.416,1,6,0.100,28496.000,0.200,20640.000,0.300,1926.000,0.500,479.000,1.000,307.000,5.000,0
"07/04/06","16:11:13","AMMA06",52141.000,"cc",28315.525,6.00,2831.553,1,6,0.100,28761.000,0.200,20697.000,0.300,1905.000,0.500,464.000,1.000,314.000,5.000,0
"07/04/06","16:11:19","AMMA06",52247.000,"cc",28341.397,6.00,2834.140,1,6,0.100,28842.000,0.200,20639.000,0.300,1974.000,0.500,484.000,1.000,308.000,5.000,0
"07/04/06","16:11:25","AMMA06",52015.000,"cc",28315.494,6.00,2831.550,1,6,0.100,28709.000,0.200,20593.000,0.300,1930.000,0.500,496.000,1.000,287.000,5.000,0
"07/04/06","16:11:31","AMMA06",52179.000,"cc",28324.363,6.00,2832.437,1,6,0.100,28872.000,0.200,20604.000,0.300,1903.000,0.500,465.000,1.000,334.000,5.000,1.000
"07/04/06","16:11:37","AMMA06",52347.000,"cc",28323.861,6.00,2832.386,1,6,0.100,28640.000,0.200,20973.000,0.300,1979.000,0.500,450.000,1.000,305.000,5.000,0
"07/04/06","16:11:43","AMMA06",52123.000,"cc",28329.848,6.00,2832.985,1,6,0.100,28368.000,0.200,21014.000,0.300,1926.000,0.500,495.000,1.000,320.000,5.000,0
"07/04/06","16:11:49","AMMA06",51913.000,"cc",28327.252,6.00,2832.725,1,6,0.100,28411.000,0.200,20741.000,0.300,1988.000,0.500,473.000,1.000,300.000,5.000,0
"07/04/06","16:11:55","AMMA06",52203.000,"cc",28269.645,6.00,2826.965,1,6,0.100,28206.000,0.200,21258.000,0.300,1975.000,0.500,458.000,1.000,306.000,5.000,0
"07/04/06","16:12:01","AMMA06",52043.000,"cc",28259.219,6.00,2825.922,1,6,0.100,28208.000,0.200,21112.000,0.300,1943.000,0.500,478.000,1.000,301.000,5.000,1.000
"07/04/06","16:12:07","AMMA06",52270.000,"cc",28298.984,6.00,2829.899,1,6,0.100,28192.000,0.200,21337.000,0.300,1989.000,0.500,457.000,1.000,295.000,5.000,0
"07/04/06","16:12:13","AMMA06",52181.000,"cc",28346.127,6.00,2834.613,1,6,0.100,28129.000,0.200,21306.000,0.300,1964.000,0.500,489.000,1.000,293.000,5.000,0
"07/04/06","16:12:19","AMMA06",52368.000,"cc",28330.094,6.00,2833.010,1,6,0.100,28333.000,0.200,21248.000,0.300,2030.000,0.500,478.000,1.000,279.000,5.000,0
"07/04/06","16:12:25","AMMA06",52731.000,"cc",28342.631,6.00,2834.263,1,6,0.100,28469.000,0.200,21439.000,0.300,2028.000,0.500,488.000,1.000,307.000,5.000,0
"07/04/06","16:12:31","AMMA06",52224.000,"cc",28358.197,6.00,2835.820,1,6,0.100,28173.000,0.200,21346.000,0.300,1972.000,0.500,445.000,1.000,288.000,5.000,0
"07/04/06","16:12:37","AMMA06",52391.000,"cc",28273.406,6.00,2827.341,1,6,0.100,28254.000,0.200,21275.000,0.300,2074.000,0.500,503.000,1.000,284.000,5.000,1.000
"07/04/06","16:12:43","AMMA06",52643.000,"cc",28258.373,6.00,2825.837,1,6,0.100,28392.000,0.200,21368.000,0.300,2022.000,0.500,528.000,1.000,333.000,5.000,0
"07/04/06","16:12:49","AMMA06",52597.000,"cc",28347.320,6.00,2834.732,1,6,0.100,28664.000,0.200,21125.000,0.300,1988.000,0.500,524.000,1.000,296.000,5.000,0
"07/04/06","16:12:55","AMMA06",51914.000,"cc",28295.299,6.00,2829.530,1,6,0.100,28247.000,0.200,20946.000,0.300,1946.000,0.500,480.000,1.000,295.000,5.000,0
"07/04/06","16:13:01","AMMA06",52658.000,"cc",28287.154,6.00,2828.716,1,6,0.100,28686.000,0.200,21250.000,0.300,1971.000,0.500,467.000,1.000,284.000,5.000,0
"07/04/06","16:13:07","AMMA06",52355.000,"cc",28312.828,6.00,2831.283,1,6,0.100,28268.000,0.200,21276.000,0.300,1983.000,0.500,519.000,1.000,309.000,5.000,0
"07/04/06","16:13:13","AMMA06",52634.000,"cc",28291.400,6.00,2829.140,1,6,0.100,28586.000,0.200,21303.000,0.300,1940.000,0.500,514.000,1.000,291.000,5.000,0
"07/04/06","16:13:19","AMMA06",52089.000,"cc",28394.772,6.00,2839.477,1,6,0.100,28273.000,0.200,21023.000,0.300,2002.000,0.500,479.000,1.000,312.000,5.000,0
"07/04/06","16:13:25","AMMA06",52074.000,"cc",28328.473,6.00,2832.847,1,6,0.100,28319.000,0.200,20995.000,0.300,1977.000,0.500,509.000,1.000,274.000,5.000,0
"07/04/06","16:13:31","AMMA06",52084.000,"cc",28298.424,6.00,2829.843,1,6,0.100,28255.000,0.200,21050.000,0.300,1975.000,0.500,490.000,1.000,314.000,5.000,0
"07/04/06","16:13:37","AMMA06",52245.000,"cc",28355.791,6.00,2835.579,1,6,0.100,28368.000,0.200,21125.000,0.300,1956.000,0.500,489.000,1.000,307.000,5.000,0
"07/04/06","16:13:43","AMMA06",52307.000,"cc",28305.563,6.00,2830.556,1,6,0.100,28641.000,0.200,21002.000,0.300,1897.000,0.500,464.000,1.000,303.000,5.000,0
"07/04/06","16:13:49","AMMA06",52206.000,"cc",28291.709,6.00,2829.171,1,6,0.100,28250.000,0.200,21240.000,0.300,1913.000,0.500,499.000,1.000,303.000,5.000,1.000
"07/04/06","16:13:55","AMMA06",52145.000,"cc",28281.807,6.00,2828.181,1,6,0.100,28350.000,0.200,21058.000,0.300,1978.000,0.500,454.000,1.000,305.000,5.000,0
"07/04/06","16:14:01","AMMA06",52474.000,"cc",28343.160,6.00,2834.316,1,6,0.100,28321.000,0.200,21380.000,0.300,2007.000,0.500,473.000,1.000,293.000,5.000,0
"07/04/06","16:14:07","AMMA06",52257.000,"cc",28354.447,6.00,2835.445,1,6,0.100,28371.000,0.200,21037.000,0.300,1996.000,0.500,525.000,1.000,328.000,5.000,0
"07/04/06","16:14:13","AMMA06",52362.000,"cc",28277.107,6.00,2827.711,1,6,0.100,28483.000,0.200,21144.000,0.300,1953.000,0.500,477.000,1.000,305.000,5.000,0